Location: Portland General Electric Salem Helipad
(44.9996°N, 122.9770°W)
Time: 07:06:48
(UTC+00:00)

Daily predictions for brighter satellites

Satellite Brightness Start Highest point End
(mag) Time Altitude Azimuth Time Altitude Azimuth Time Altitude Azimuth
Cosmos 1844 Rocket 4.3 12:01:47 10° WNW 12:04:38 14° W 12:07:27 10° SW
CZ-2D R/B 3.5 12:00:40 10° N 12:04:41 23° WNW 12:08:40 10° WSW
NOSS 2-2 (D) 3.3 12:01:20 10° SSW 12:04:45 55° SE 12:07:45 10° NE
Cosmos 371 Rocket 4.3 12:05:58 10° NNW 12:10:41 53° ENE 12:15:21 10° SE
